Voltar ao catálogo

APEX R/B

AtivoLEO
NORAD 23198·ROCKET BODY·🇺🇸 United States

Lançado Aug 3, 1994 de Vandenberg Space Force Base

Loading…

Próximas Passagens (próximas 24 horas)

TLE

AtualizadoSource: Space-Track

Época: Sep 14, 2026, 21:23 UTC

1 23198U 94046B   26257.89138977  .00013455  00000-0  45501-3 0  9996
2 23198  69.9173 286.2115 0619983 291.2962  62.3068 14.34179259559933

Acompanhe APEX R/B em tempo real com AllMySat

Download on the App Store